Year,Month,Day,Hour,Minute,Value (Times are PST for temperature in C)
2010,07,09,00,00,22.00
2010,07,09,00,01,22.00
2010,07,09,00,02,22.00
2010,07,09,00,03,22.00
2010,07,09,00,04,22.00
2010,07,09,00,05,22.00
2010,07,09,00,06,22.00
2010,07,09,00,07,22.00
2010,07,09,00,08,22.00
2010,07,09,00,09,22.00
2010,07,09,00,10,22.00
2010,07,09,00,11,22.00
2010,07,09,00,12,22.00
2010,07,09,00,13,22.00
2010,07,09,00,14,22.00
2010,07,09,00,15,22.00
2010,07,09,00,16,22.00
2010,07,09,00,17,22.00
2010,07,09,00,18,22.00
2010,07,09,00,19,22.00
2010,07,09,00,20,22.10
2010,07,09,00,21,22.10
2010,07,09,00,22,22.00
2010,07,09,00,23,22.00
2010,07,09,00,24,22.00
2010,07,09,00,25,22.00
2010,07,09,00,26,22.00
2010,07,09,00,27,21.90
2010,07,09,00,28,21.90
2010,07,09,00,29,21.90
2010,07,09,00,30,21.90
2010,07,09,00,31,21.90
2010,07,09,00,32,21.80
2010,07,09,00,33,21.80
2010,07,09,00,34,21.70
2010,07,09,00,35,21.60
2010,07,09,00,36,21.60
2010,07,09,00,37,21.60
2010,07,09,00,38,21.60
2010,07,09,00,39,21.60
2010,07,09,00,40,21.50
2010,07,09,00,41,21.40
2010,07,09,00,42,21.30
2010,07,09,00,43,21.30
2010,07,09,00,44,21.30
2010,07,09,00,45,21.30
2010,07,09,00,46,21.30
2010,07,09,00,47,21.20
2010,07,09,00,48,21.20
2010,07,09,00,49,21.20
2010,07,09,00,50,21.20
2010,07,09,00,51,21.20
2010,07,09,00,52,21.20
2010,07,09,00,53,21.20
2010,07,09,00,54,21.20
2010,07,09,00,55,21.20
2010,07,09,00,56,21.20
2010,07,09,00,57,21.20
2010,07,09,00,58,21.20
2010,07,09,00,59,21.20
2010,07,09,01,00,21.20
2010,07,09,01,01,21.20
2010,07,09,01,02,21.30
2010,07,09,01,03,21.30
2010,07,09,01,04,21.30
2010,07,09,01,05,21.30
2010,07,09,01,06,21.30
2010,07,09,01,07,21.30
2010,07,09,01,08,21.30
2010,07,09,01,09,21.30
2010,07,09,01,10,21.30
2010,07,09,01,11,21.30
2010,07,09,01,12,21.30
2010,07,09,01,13,21.30
2010,07,09,01,14,21.30
2010,07,09,01,15,21.30
2010,07,09,01,16,21.30
2010,07,09,01,17,21.30
2010,07,09,01,18,21.30
2010,07,09,01,19,21.30
2010,07,09,01,20,21.30
2010,07,09,01,21,21.30
2010,07,09,01,22,21.30
2010,07,09,01,23,21.30
2010,07,09,01,24,21.30
2010,07,09,01,25,21.30
2010,07,09,01,26,21.30
2010,07,09,01,27,21.30
2010,07,09,01,28,21.30
2010,07,09,01,29,21.30
2010,07,09,01,30,21.30
2010,07,09,01,31,21.30
2010,07,09,01,32,21.30
2010,07,09,01,33,21.20
2010,07,09,01,34,21.20
2010,07,09,01,35,21.10
2010,07,09,01,36,21.10
2010,07,09,01,37,21.00
2010,07,09,01,38,21.00
2010,07,09,01,39,20.90
2010,07,09,01,40,20.90
2010,07,09,01,41,20.90
2010,07,09,01,42,20.90
2010,07,09,01,43,20.80
2010,07,09,01,44,20.80
2010,07,09,01,45,20.80
2010,07,09,01,46,20.70
2010,07,09,01,47,20.60
2010,07,09,01,48,20.60
2010,07,09,01,49,20.50
2010,07,09,01,50,20.40
2010,07,09,01,51,20.20
2010,07,09,01,52,20.20
2010,07,09,01,53,20.00
2010,07,09,01,54,19.90
2010,07,09,01,55,19.80
2010,07,09,01,56,19.80
2010,07,09,01,57,19.70
2010,07,09,01,58,19.70
2010,07,09,01,59,19.70
2010,07,09,02,00,19.70
2010,07,09,02,01,19.70
2010,07,09,02,02,19.80
2010,07,09,02,03,19.90
2010,07,09,02,04,19.90
2010,07,09,02,05,20.00
2010,07,09,02,06,20.10
2010,07,09,02,07,20.10
2010,07,09,02,08,20.10
2010,07,09,02,09,20.10
2010,07,09,02,10,20.10
2010,07,09,02,11,20.10
2010,07,09,02,12,20.20
2010,07,09,02,13,20.20
2010,07,09,02,14,20.20
2010,07,09,02,15,20.20
2010,07,09,02,16,20.20
2010,07,09,02,17,20.20
2010,07,09,02,18,20.20
2010,07,09,02,19,20.20
2010,07,09,02,20,20.20
2010,07,09,02,21,20.20
2010,07,09,02,22,20.20
2010,07,09,02,23,20.20
2010,07,09,02,24,20.10
2010,07,09,02,25,20.10
2010,07,09,02,26,20.00
2010,07,09,02,27,19.90
2010,07,09,02,28,19.90
2010,07,09,02,29,19.80
2010,07,09,02,30,19.80
2010,07,09,02,31,19.70
2010,07,09,02,32,19.70
2010,07,09,02,33,19.60
2010,07,09,02,34,19.60
2010,07,09,02,35,19.50
2010,07,09,02,36,19.50
2010,07,09,02,37,19.40
2010,07,09,02,38,19.40
2010,07,09,02,39,19.40
2010,07,09,02,40,19.30
2010,07,09,02,41,19.30
2010,07,09,02,42,19.30
2010,07,09,02,43,19.30
2010,07,09,02,44,19.20
2010,07,09,02,45,19.20
2010,07,09,02,46,19.20
2010,07,09,02,47,19.20
2010,07,09,02,48,19.20
2010,07,09,02,49,19.20
2010,07,09,02,50,19.20
2010,07,09,02,51,19.20
2010,07,09,02,52,19.20
2010,07,09,02,53,19.20
2010,07,09,02,54,19.30
2010,07,09,02,55,19.30
2010,07,09,02,56,19.30
2010,07,09,02,57,19.40
2010,07,09,02,58,19.40
2010,07,09,02,59,19.40
2010,07,09,03,00,19.50
2010,07,09,03,01,19.50
2010,07,09,03,02,19.50
2010,07,09,03,03,19.50
2010,07,09,03,04,19.60
2010,07,09,03,05,19.60
2010,07,09,03,06,19.60
2010,07,09,03,07,19.60
2010,07,09,03,08,19.60
2010,07,09,03,09,19.50
2010,07,09,03,10,19.50
2010,07,09,03,11,19.50
2010,07,09,03,12,19.50
2010,07,09,03,13,19.50
2010,07,09,03,14,19.60
2010,07,09,03,15,19.60
2010,07,09,03,16,19.70
2010,07,09,03,17,19.80
2010,07,09,03,18,19.80
2010,07,09,03,19,19.90
2010,07,09,03,20,19.90
2010,07,09,03,21,19.90
2010,07,09,03,22,19.90
2010,07,09,03,23,19.90
2010,07,09,03,24,20.00
2010,07,09,03,25,20.10
2010,07,09,03,26,20.10
2010,07,09,03,27,20.10
2010,07,09,03,28,20.10
2010,07,09,03,29,20.10
2010,07,09,03,30,20.10
2010,07,09,03,31,20.10
2010,07,09,03,32,20.20
2010,07,09,03,33,20.10
2010,07,09,03,34,20.10
2010,07,09,03,35,20.10
2010,07,09,03,36,20.10
2010,07,09,03,37,20.10
2010,07,09,03,38,20.00
2010,07,09,03,39,19.90
2010,07,09,03,40,19.90
2010,07,09,03,41,19.90
2010,07,09,03,42,19.90
2010,07,09,03,43,19.90
2010,07,09,03,44,19.90
2010,07,09,03,45,19.90
2010,07,09,03,46,19.80
2010,07,09,03,47,19.80
2010,07,09,03,48,19.90
2010,07,09,03,49,19.90
2010,07,09,03,50,19.90
2010,07,09,03,51,19.90
2010,07,09,03,52,19.90
2010,07,09,03,53,19.80
2010,07,09,03,54,19.80
2010,07,09,03,55,19.80
2010,07,09,03,56,19.80
2010,07,09,03,57,19.80
2010,07,09,03,58,19.70
2010,07,09,03,59,19.70
2010,07,09,04,00,19.60
2010,07,09,04,01,19.60
2010,07,09,04,02,19.50
2010,07,09,04,03,19.30
2010,07,09,04,04,19.20
2010,07,09,04,05,19.00
2010,07,09,04,06,18.90
2010,07,09,04,07,18.80
2010,07,09,04,08,18.80
2010,07,09,04,09,18.70
2010,07,09,04,10,18.60
2010,07,09,04,11,18.60
2010,07,09,04,12,18.50
2010,07,09,04,13,18.50
2010,07,09,04,14,18.50
2010,07,09,04,15,18.40
2010,07,09,04,16,18.40
2010,07,09,04,17,18.30
2010,07,09,04,18,18.30
2010,07,09,04,19,18.20
2010,07,09,04,20,18.20
2010,07,09,04,21,18.20
2010,07,09,04,22,18.20
2010,07,09,04,23,18.20
2010,07,09,04,24,18.10
2010,07,09,04,25,18.10
2010,07,09,04,26,18.00
2010,07,09,04,27,17.90
2010,07,09,04,28,17.90
2010,07,09,04,29,17.90
2010,07,09,04,30,17.90
2010,07,09,04,31,17.90
2010,07,09,04,32,17.90
2010,07,09,04,33,17.90
2010,07,09,04,34,17.90
2010,07,09,04,35,17.90
2010,07,09,04,36,18.10
2010,07,09,04,37,18.20
2010,07,09,04,38,18.20
2010,07,09,04,39,18.30
2010,07,09,04,40,18.40
2010,07,09,04,41,18.40
2010,07,09,04,42,18.40
2010,07,09,04,43,18.40
2010,07,09,04,44,18.40
2010,07,09,04,45,18.30
2010,07,09,04,46,18.30
2010,07,09,04,47,18.30
2010,07,09,04,48,18.20
2010,07,09,04,49,18.20
2010,07,09,04,50,18.20
2010,07,09,04,51,18.20
2010,07,09,04,52,18.20
2010,07,09,04,53,18.20
2010,07,09,04,54,18.10
2010,07,09,04,55,17.90
2010,07,09,04,56,17.90
2010,07,09,04,57,17.80
2010,07,09,04,58,17.80
2010,07,09,04,59,17.70
2010,07,09,05,00,17.60
2010,07,09,05,01,17.60
2010,07,09,05,02,17.50
2010,07,09,05,03,17.50
2010,07,09,05,04,17.40
2010,07,09,05,05,17.40
2010,07,09,05,06,17.40
2010,07,09,05,07,17.40
2010,07,09,05,08,17.30
2010,07,09,05,09,17.30
2010,07,09,05,10,17.30
2010,07,09,05,11,17.30
2010,07,09,05,12,17.30
2010,07,09,05,13,17.30
2010,07,09,05,14,17.30
2010,07,09,05,15,17.30
2010,07,09,05,16,17.30
2010,07,09,05,17,17.30
2010,07,09,05,18,17.30
2010,07,09,05,19,17.30
2010,07,09,05,20,17.20
2010,07,09,05,21,17.20
2010,07,09,05,22,17.10
2010,07,09,05,23,17.10
2010,07,09,05,24,17.10
2010,07,09,05,25,17.00
2010,07,09,05,26,17.00
2010,07,09,05,27,17.00
2010,07,09,05,28,16.90
2010,07,09,05,29,16.90
2010,07,09,05,30,16.90
2010,07,09,05,31,16.80
2010,07,09,05,32,16.70
2010,07,09,05,33,16.50
2010,07,09,05,34,16.40
2010,07,09,05,35,16.20
2010,07,09,05,36,16.10
2010,07,09,05,37,16.00
2010,07,09,05,38,15.90
2010,07,09,05,39,15.90
2010,07,09,05,40,15.80
2010,07,09,05,41,15.80
2010,07,09,05,42,15.80
2010,07,09,05,43,15.80
2010,07,09,05,44,15.80
2010,07,09,05,45,15.70
2010,07,09,05,46,15.60
2010,07,09,05,47,15.50
2010,07,09,05,48,15.50
2010,07,09,05,49,15.40
2010,07,09,05,50,15.40
2010,07,09,05,51,15.30
2010,07,09,05,52,15.30
2010,07,09,05,53,15.30
2010,07,09,05,54,15.30
2010,07,09,05,55,15.30
2010,07,09,05,56,15.30
2010,07,09,05,57,15.30
2010,07,09,05,58,15.30
2010,07,09,05,59,15.30
2010,07,09,06,00,15.30
2010,07,09,06,01,15.30
2010,07,09,06,02,15.40
2010,07,09,06,03,15.50
2010,07,09,06,04,15.50
2010,07,09,06,05,15.60
2010,07,09,06,06,15.70
2010,07,09,06,07,15.80
2010,07,09,06,08,15.80
2010,07,09,06,09,15.80
2010,07,09,06,10,15.90
2010,07,09,06,11,15.90
2010,07,09,06,12,15.90
2010,07,09,06,13,16.10
2010,07,09,06,14,16.10
2010,07,09,06,15,16.10
2010,07,09,06,16,16.10
2010,07,09,06,17,16.20
2010,07,09,06,18,16.30
2010,07,09,06,19,16.30
2010,07,09,06,20,16.30
2010,07,09,06,21,16.40
2010,07,09,06,22,16.40
2010,07,09,06,23,16.40
2010,07,09,06,24,16.40
2010,07,09,06,25,16.40
2010,07,09,06,26,16.50
2010,07,09,06,27,16.60
2010,07,09,06,28,16.60
2010,07,09,06,29,16.70
2010,07,09,06,30,16.70
2010,07,09,06,31,16.80
2010,07,09,06,32,16.90
2010,07,09,06,33,17.00
2010,07,09,06,34,17.00
2010,07,09,06,35,17.10
2010,07,09,06,36,17.20
2010,07,09,06,37,17.30
2010,07,09,06,38,17.30
2010,07,09,06,39,17.30
2010,07,09,06,40,17.40
2010,07,09,06,41,17.40
2010,07,09,06,42,17.50
2010,07,09,06,43,17.50
2010,07,09,06,44,17.50
2010,07,09,06,45,17.60
2010,07,09,06,46,17.70
2010,07,09,06,47,17.70
2010,07,09,06,48,17.80
2010,07,09,06,49,17.80
2010,07,09,06,50,17.90
2010,07,09,06,51,18.00
2010,07,09,06,52,18.10
2010,07,09,06,53,18.20
2010,07,09,06,54,18.20
2010,07,09,06,55,18.20
2010,07,09,06,56,18.30
2010,07,09,06,57,18.30
2010,07,09,06,58,18.40
2010,07,09,06,59,18.40
2010,07,09,07,00,18.50
2010,07,09,07,01,18.50
2010,07,09,07,02,18.60
2010,07,09,07,03,18.60
2010,07,09,07,04,18.70
2010,07,09,07,05,18.70
2010,07,09,07,06,18.70
2010,07,09,07,07,18.80
2010,07,09,07,08,18.90
2010,07,09,07,09,18.90
2010,07,09,07,10,18.90
2010,07,09,07,11,19.00
2010,07,09,07,12,19.10
2010,07,09,07,13,19.10
2010,07,09,07,14,19.20
2010,07,09,07,15,19.30
2010,07,09,07,16,19.40
2010,07,09,07,17,19.40
2010,07,09,07,18,19.50
2010,07,09,07,19,19.60
2010,07,09,07,20,19.60
2010,07,09,07,21,19.70
2010,07,09,07,22,19.80
2010,07,09,07,23,19.90
2010,07,09,07,24,19.90
2010,07,09,07,25,19.90
2010,07,09,07,26,20.00
2010,07,09,07,27,20.10
2010,07,09,07,28,20.20
2010,07,09,07,29,20.20
2010,07,09,07,30,20.20
2010,07,09,07,31,20.30
2010,07,09,07,32,20.40
2010,07,09,07,33,20.50
2010,07,09,07,34,20.60
2010,07,09,07,35,20.80
2010,07,09,07,36,20.90
2010,07,09,07,37,21.10
2010,07,09,07,38,21.30
2010,07,09,07,39,21.50
2010,07,09,07,40,21.60
2010,07,09,07,41,21.80
2010,07,09,07,42,22.00
2010,07,09,07,43,22.10
2010,07,09,07,44,22.20
2010,07,09,07,45,22.30
2010,07,09,07,46,22.50
2010,07,09,07,47,22.60
2010,07,09,07,48,22.70
2010,07,09,07,49,22.80
2010,07,09,07,50,22.80
2010,07,09,07,51,22.80
2010,07,09,07,52,22.90
2010,07,09,07,53,22.90
2010,07,09,07,54,23.00
2010,07,09,07,55,23.10
2010,07,09,07,56,23.20
2010,07,09,07,57,23.30
2010,07,09,07,58,23.40
2010,07,09,07,59,23.50
2010,07,09,08,00,23.60
2010,07,09,08,01,23.70
2010,07,09,08,02,23.80
2010,07,09,08,03,23.90
2010,07,09,08,04,24.00
2010,07,09,08,05,24.10
2010,07,09,08,06,24.10
2010,07,09,08,07,24.20
2010,07,09,08,08,24.30
2010,07,09,08,09,24.30
2010,07,09,08,10,24.40
2010,07,09,08,11,24.40
2010,07,09,08,12,24.40
2010,07,09,08,13,24.40
2010,07,09,08,14,24.40
2010,07,09,08,15,24.40
2010,07,09,08,16,24.40
2010,07,09,08,17,24.40
2010,07,09,08,18,24.40
2010,07,09,08,19,24.40
2010,07,09,08,20,24.50
2010,07,09,08,21,24.50
2010,07,09,08,22,24.60
2010,07,09,08,23,24.70
2010,07,09,08,24,24.80
2010,07,09,08,25,24.80
2010,07,09,08,26,24.90
2010,07,09,08,27,24.90
2010,07,09,08,28,25.00
2010,07,09,08,29,25.00
2010,07,09,08,30,25.00
2010,07,09,08,31,25.00
2010,07,09,08,32,25.10
2010,07,09,08,33,25.10
2010,07,09,08,34,25.20
2010,07,09,08,35,25.20
2010,07,09,08,36,25.30
2010,07,09,08,37,25.30
2010,07,09,08,38,25.40
2010,07,09,08,39,25.40
2010,07,09,08,40,25.50
2010,07,09,08,41,25.50
2010,07,09,08,42,25.50
2010,07,09,08,43,25.50
2010,07,09,08,44,25.50
2010,07,09,08,45,25.50
2010,07,09,08,46,25.50
2010,07,09,08,47,25.60
2010,07,09,08,48,25.60
2010,07,09,08,49,25.70
2010,07,09,08,50,25.80
2010,07,09,08,51,25.80
2010,07,09,08,52,25.90
2010,07,09,08,53,25.80
2010,07,09,08,54,25.70
2010,07,09,08,55,25.60
2010,07,09,08,56,25.50
2010,07,09,08,57,25.40
2010,07,09,08,58,25.20
2010,07,09,08,59,25.10
2010,07,09,09,00,24.90
2010,07,09,09,01,24.60
2010,07,09,09,02,24.50
2010,07,09,09,03,24.40
2010,07,09,09,04,24.30
2010,07,09,09,05,24.20
2010,07,09,09,06,24.10
2010,07,09,09,07,24.10
2010,07,09,09,08,24.10
2010,07,09,09,09,24.10
2010,07,09,09,10,24.10
2010,07,09,09,11,24.00
2010,07,09,09,12,23.70
2010,07,09,09,13,23.40
2010,07,09,09,14,23.20
2010,07,09,09,15,23.10
2010,07,09,09,16,23.10
2010,07,09,09,17,23.10
2010,07,09,09,18,23.20
2010,07,09,09,19,23.10
2010,07,09,09,20,23.20
2010,07,09,09,21,23.30
2010,07,09,09,22,23.20
2010,07,09,09,23,23.20
2010,07,09,09,24,23.20
2010,07,09,09,25,23.30
2010,07,09,09,26,23.40
2010,07,09,09,27,23.40
2010,07,09,09,28,23.40
2010,07,09,09,29,23.40
2010,07,09,09,30,23.30
2010,07,09,09,31,23.10
2010,07,09,09,32,22.90
2010,07,09,09,33,22.80
2010,07,09,09,34,22.70
2010,07,09,09,35,22.70
2010,07,09,09,36,22.80
2010,07,09,09,37,22.90
2010,07,09,09,38,23.00
2010,07,09,09,39,23.10
2010,07,09,09,40,23.20
2010,07,09,09,41,23.20
2010,07,09,09,42,23.30
2010,07,09,09,43,23.30
2010,07,09,09,44,23.40
2010,07,09,09,45,23.50
2010,07,09,09,46,23.60
2010,07,09,09,47,23.70
2010,07,09,09,48,23.70
2010,07,09,09,49,23.70
2010,07,09,09,50,23.60
2010,07,09,09,51,23.40
2010,07,09,09,52,23.40
2010,07,09,09,53,23.40
2010,07,09,09,54,23.40
2010,07,09,09,55,23.30
2010,07,09,09,56,23.30
2010,07,09,09,57,23.30
2010,07,09,09,58,23.50
2010,07,09,09,59,23.60
2010,07,09,10,00,23.70
2010,07,09,10,01,23.90
2010,07,09,10,02,24.00
2010,07,09,10,03,24.10
2010,07,09,10,04,24.20
2010,07,09,10,05,24.30
2010,07,09,10,06,24.30
2010,07,09,10,07,24.40
2010,07,09,10,08,24.50
2010,07,09,10,09,24.50
2010,07,09,10,10,24.40
2010,07,09,10,11,24.50
2010,07,09,10,12,24.60
2010,07,09,10,13,24.60
2010,07,09,10,14,24.80
2010,07,09,10,15,24.90
2010,07,09,10,16,25.00
2010,07,09,10,17,25.10
2010,07,09,10,18,25.10
2010,07,09,10,19,25.10
2010,07,09,10,20,25.10
2010,07,09,10,21,25.10
2010,07,09,10,22,25.00
2010,07,09,10,23,25.00
2010,07,09,10,24,25.00
2010,07,09,10,25,25.00
2010,07,09,10,26,25.00
2010,07,09,10,27,25.10
2010,07,09,10,28,25.10
2010,07,09,10,29,25.10
2010,07,09,10,30,25.20
2010,07,09,10,31,25.20
2010,07,09,10,32,25.20
2010,07,09,10,33,25.20
2010,07,09,10,34,25.20
2010,07,09,10,35,25.10
2010,07,09,10,36,24.90
2010,07,09,10,37,24.90
2010,07,09,10,38,24.90
2010,07,09,10,39,25.00
2010,07,09,10,40,25.00
2010,07,09,10,41,25.10
2010,07,09,10,42,25.20
2010,07,09,10,43,25.30
2010,07,09,10,44,25.40
2010,07,09,10,45,25.50
2010,07,09,10,46,25.50
2010,07,09,10,47,25.50
2010,07,09,10,48,25.40
2010,07,09,10,49,25.30
2010,07,09,10,50,25.30
2010,07,09,10,51,25.30
2010,07,09,10,52,25.00
2010,07,09,10,53,24.70
2010,07,09,10,54,24.50
2010,07,09,10,55,24.20
2010,07,09,10,56,23.90
2010,07,09,10,57,23.70
2010,07,09,10,58,23.70
2010,07,09,10,59,23.70
2010,07,09,11,00,23.70
2010,07,09,11,01,23.70
2010,07,09,11,02,23.60
2010,07,09,11,03,23.60
2010,07,09,11,04,23.60
2010,07,09,11,05,23.70
2010,07,09,11,06,23.70
2010,07,09,11,07,23.70
2010,07,09,11,08,23.70
2010,07,09,11,09,23.80
2010,07,09,11,10,23.80
2010,07,09,11,11,23.80
2010,07,09,11,12,23.80
2010,07,09,11,13,23.90
2010,07,09,11,14,23.90
2010,07,09,11,15,23.90
2010,07,09,11,16,23.90
2010,07,09,11,17,23.90
2010,07,09,11,18,23.90
2010,07,09,11,19,23.90
2010,07,09,11,20,24.00
2010,07,09,11,21,24.10
2010,07,09,11,22,24.10
2010,07,09,11,23,24.20
2010,07,09,11,24,24.20
2010,07,09,11,25,24.20
2010,07,09,11,26,24.10
2010,07,09,11,27,24.10
2010,07,09,11,28,24.10
2010,07,09,11,29,24.10
2010,07,09,11,30,23.90
2010,07,09,11,31,23.80
2010,07,09,11,32,23.80
2010,07,09,11,33,23.80
2010,07,09,11,34,23.90
2010,07,09,11,35,23.90
2010,07,09,11,36,24.00
2010,07,09,11,37,24.10
2010,07,09,11,38,24.10
2010,07,09,11,39,24.10
2010,07,09,11,40,23.90
2010,07,09,11,41,23.70
2010,07,09,11,42,23.70
2010,07,09,11,43,23.70
2010,07,09,11,44,23.70
2010,07,09,11,45,23.70
2010,07,09,11,46,23.80
2010,07,09,11,47,23.90
2010,07,09,11,48,24.00
2010,07,09,11,49,24.10
2010,07,09,11,50,24.20
2010,07,09,11,51,24.30
2010,07,09,11,52,24.40
2010,07,09,11,53,24.50
2010,07,09,11,54,24.60
2010,07,09,11,55,24.50
2010,07,09,11,56,24.60
2010,07,09,11,57,24.60
2010,07,09,11,58,24.50
2010,07,09,11,59,24.50
2010,07,09,12,00,24.50
2010,07,09,12,01,24.50
2010,07,09,12,02,24.60
2010,07,09,12,03,24.70
2010,07,09,12,04,24.80
2010,07,09,12,05,24.80
2010,07,09,12,06,24.90
2010,07,09,12,07,24.90
2010,07,09,12,08,24.90
2010,07,09,12,09,24.90
2010,07,09,12,10,24.80
2010,07,09,12,11,24.70
2010,07,09,12,12,24.70
2010,07,09,12,13,24.60
2010,07,09,12,14,24.60
2010,07,09,12,15,24.60
2010,07,09,12,16,24.70
2010,07,09,12,17,24.90
2010,07,09,12,18,25.00
2010,07,09,12,19,25.10
2010,07,09,12,20,25.30
2010,07,09,12,21,25.30
2010,07,09,12,22,25.20
2010,07,09,12,23,25.10
2010,07,09,12,24,25.10
2010,07,09,12,25,25.10
2010,07,09,12,26,25.10
2010,07,09,12,27,25.10
2010,07,09,12,28,25.10
2010,07,09,12,29,25.00
2010,07,09,12,30,25.00
2010,07,09,12,31,25.00
2010,07,09,12,32,25.10
2010,07,09,12,33,25.20
2010,07,09,12,34,25.30
2010,07,09,12,35,25.40
2010,07,09,12,36,25.40
2010,07,09,12,37,25.30
2010,07,09,12,38,25.20
2010,07,09,12,39,25.20
2010,07,09,12,40,25.30
2010,07,09,12,41,25.30
2010,07,09,12,42,25.30
2010,07,09,12,43,25.10
2010,07,09,12,44,25.00
2010,07,09,12,45,25.10
2010,07,09,12,46,25.00
2010,07,09,12,47,25.10
2010,07,09,12,48,25.10
2010,07,09,12,49,25.20
2010,07,09,12,50,25.30
2010,07,09,12,51,25.30
2010,07,09,12,52,25.20
2010,07,09,12,53,25.20
2010,07,09,12,54,25.20
2010,07,09,12,55,25.40
2010,07,09,12,56,25.60
2010,07,09,12,57,25.70
2010,07,09,12,58,25.80
2010,07,09,12,59,25.80
2010,07,09,13,00,25.80
2010,07,09,13,01,25.80
2010,07,09,13,02,25.80
2010,07,09,13,03,25.80
2010,07,09,13,04,25.80
2010,07,09,13,05,25.80
2010,07,09,13,06,25.80
2010,07,09,13,07,25.80
2010,07,09,13,08,25.80
2010,07,09,13,09,25.80
2010,07,09,13,10,25.80
2010,07,09,13,11,25.90
2010,07,09,13,12,25.80
2010,07,09,13,13,25.70
2010,07,09,13,14,25.60
2010,07,09,13,15,25.50
2010,07,09,13,16,25.50
2010,07,09,13,17,25.40
2010,07,09,13,18,25.30
2010,07,09,13,19,25.30
2010,07,09,13,20,25.30
2010,07,09,13,21,25.30
2010,07,09,13,22,25.30
2010,07,09,13,23,25.40
2010,07,09,13,24,25.40
2010,07,09,13,25,25.40
2010,07,09,13,26,25.30
2010,07,09,13,27,25.20
2010,07,09,13,28,25.20
2010,07,09,13,29,25.30
2010,07,09,13,30,25.40
2010,07,09,13,31,25.50
2010,07,09,13,32,25.40
2010,07,09,13,33,25.40
2010,07,09,13,34,25.30
2010,07,09,13,35,25.30
2010,07,09,13,36,25.20
2010,07,09,13,37,25.20
2010,07,09,13,38,25.20
2010,07,09,13,39,25.30
2010,07,09,13,40,25.30
2010,07,09,13,41,25.40
2010,07,09,13,42,25.30
2010,07,09,13,43,25.20
2010,07,09,13,44,25.10
2010,07,09,13,45,25.10
2010,07,09,13,46,25.00
2010,07,09,13,47,24.90
2010,07,09,13,48,24.90
2010,07,09,13,49,24.90
2010,07,09,13,50,24.90
2010,07,09,13,51,24.90
2010,07,09,13,52,24.90
2010,07,09,13,53,25.10
2010,07,09,13,54,25.20
2010,07,09,13,55,25.20
2010,07,09,13,56,25.30
2010,07,09,13,57,25.20
2010,07,09,13,58,25.20
2010,07,09,13,59,25.30
2010,07,09,14,00,25.30
2010,07,09,14,01,25.20
2010,07,09,14,02,25.20
2010,07,09,14,03,25.20
2010,07,09,14,04,25.40
2010,07,09,14,05,25.40
2010,07,09,14,06,25.30
2010,07,09,14,07,25.20
2010,07,09,14,08,25.10
2010,07,09,14,09,25.20
2010,07,09,14,10,25.20
2010,07,09,14,11,25.00
2010,07,09,14,12,25.00
2010,07,09,14,13,25.00
2010,07,09,14,14,24.90
2010,07,09,14,15,24.90
2010,07,09,14,16,24.90
2010,07,09,14,17,24.90
2010,07,09,14,18,25.00
2010,07,09,14,19,25.00
2010,07,09,14,20,25.00
2010,07,09,14,21,25.00
2010,07,09,14,22,25.00
2010,07,09,14,23,25.00
2010,07,09,14,24,25.00
2010,07,09,14,25,24.90
2010,07,09,14,26,25.00
2010,07,09,14,27,25.00
2010,07,09,14,28,25.00
2010,07,09,14,29,25.00
2010,07,09,14,30,25.20
2010,07,09,14,31,25.20
2010,07,09,14,32,25.20
2010,07,09,14,33,25.20
2010,07,09,14,34,25.20
2010,07,09,14,35,25.20
2010,07,09,14,36,25.20
2010,07,09,14,37,25.30
2010,07,09,14,38,25.30
2010,07,09,14,39,25.40
2010,07,09,14,40,25.40
2010,07,09,14,41,25.50
2010,07,09,14,42,25.50
2010,07,09,14,43,25.40
2010,07,09,14,44,25.40
2010,07,09,14,45,25.30
2010,07,09,14,46,25.20
2010,07,09,14,47,25.20
2010,07,09,14,48,25.20
2010,07,09,14,49,25.20
2010,07,09,14,50,25.20
2010,07,09,14,51,25.20
2010,07,09,14,52,25.30
2010,07,09,14,53,25.20
2010,07,09,14,54,25.10
2010,07,09,14,55,24.90
2010,07,09,14,56,24.80
2010,07,09,14,57,24.70
2010,07,09,14,58,24.70
2010,07,09,14,59,24.80
2010,07,09,15,00,24.60
2010,07,09,15,01,24.50
2010,07,09,15,02,24.40
2010,07,09,15,03,24.30
2010,07,09,15,04,24.10
2010,07,09,15,05,24.10
2010,07,09,15,06,24.10
2010,07,09,15,07,24.10
2010,07,09,15,08,24.10
2010,07,09,15,09,24.10
2010,07,09,15,10,24.10
2010,07,09,15,11,24.10
2010,07,09,15,12,24.10
2010,07,09,15,13,24.10
2010,07,09,15,14,24.10
2010,07,09,15,15,24.10
2010,07,09,15,16,24.10
2010,07,09,15,17,24.10
2010,07,09,15,18,24.20
2010,07,09,15,19,24.30
2010,07,09,15,20,24.40
2010,07,09,15,21,24.40
2010,07,09,15,22,24.60
2010,07,09,15,23,24.70
2010,07,09,15,24,24.80
2010,07,09,15,25,24.90
2010,07,09,15,26,25.00
2010,07,09,15,27,25.00
2010,07,09,15,28,25.00
2010,07,09,15,29,24.90
2010,07,09,15,30,24.90
2010,07,09,15,31,24.90
2010,07,09,15,32,24.90
2010,07,09,15,33,25.00
2010,07,09,15,34,25.10
2010,07,09,15,35,25.10
2010,07,09,15,36,25.10
2010,07,09,15,37,25.00
2010,07,09,15,38,24.90
2010,07,09,15,39,24.80
2010,07,09,15,40,24.80
2010,07,09,15,41,24.90
2010,07,09,15,42,24.90
2010,07,09,15,43,24.90
2010,07,09,15,44,25.00
2010,07,09,15,45,25.00
2010,07,09,15,46,25.00
2010,07,09,15,47,24.80
2010,07,09,15,48,24.60
2010,07,09,15,49,24.50
2010,07,09,15,50,24.40
2010,07,09,15,51,24.40
2010,07,09,15,52,24.40
2010,07,09,15,53,24.40
2010,07,09,15,54,24.30
2010,07,09,15,55,24.40
2010,07,09,15,56,24.50
2010,07,09,15,57,24.40
2010,07,09,15,58,24.20
2010,07,09,15,59,24.10
2010,07,09,16,00,24.20
2010,07,09,16,01,24.20
2010,07,09,16,02,24.10
2010,07,09,16,03,24.10
2010,07,09,16,04,24.00
2010,07,09,16,05,23.90
2010,07,09,16,06,23.90
2010,07,09,16,07,24.10
2010,07,09,16,08,24.10
2010,07,09,16,09,24.10
2010,07,09,16,10,24.20
2010,07,09,16,11,24.20
2010,07,09,16,12,24.30
2010,07,09,16,13,24.30
2010,07,09,16,14,24.30
2010,07,09,16,15,24.30
2010,07,09,16,16,24.30
2010,07,09,16,17,24.30
2010,07,09,16,18,24.30
2010,07,09,16,19,24.30
2010,07,09,16,20,24.30
2010,07,09,16,21,24.30
2010,07,09,16,22,24.30
2010,07,09,16,23,24.40
2010,07,09,16,24,24.50
2010,07,09,16,25,24.60
2010,07,09,16,26,24.60
2010,07,09,16,27,24.50
2010,07,09,16,28,24.40
2010,07,09,16,29,24.30
2010,07,09,16,30,24.30
2010,07,09,16,31,24.20
2010,07,09,16,32,24.20
2010,07,09,16,33,24.20
2010,07,09,16,34,24.20
2010,07,09,16,35,24.20
2010,07,09,16,36,24.20
2010,07,09,16,37,24.20
2010,07,09,16,38,24.10
2010,07,09,16,39,24.10
2010,07,09,16,40,24.10
2010,07,09,16,41,24.10
2010,07,09,16,42,24.10
2010,07,09,16,43,24.10
2010,07,09,16,44,24.10
2010,07,09,16,45,24.10
2010,07,09,16,46,24.00
2010,07,09,16,47,23.90
2010,07,09,16,48,23.90
2010,07,09,16,49,23.90
2010,07,09,16,50,24.00
2010,07,09,16,51,24.00
2010,07,09,16,52,23.90
2010,07,09,16,53,23.90
2010,07,09,16,54,23.80
2010,07,09,16,55,23.70
2010,07,09,16,56,23.40
2010,07,09,16,57,23.30
2010,07,09,16,58,23.20
2010,07,09,16,59,23.20
2010,07,09,17,00,23.20
2010,07,09,17,01,23.20
2010,07,09,17,02,23.10
2010,07,09,17,03,23.00
2010,07,09,17,04,22.90
2010,07,09,17,05,22.90
2010,07,09,17,06,22.90
2010,07,09,17,07,22.90
2010,07,09,17,08,22.90
2010,07,09,17,09,22.90
2010,07,09,17,10,22.90
2010,07,09,17,11,22.90
2010,07,09,17,12,22.90
2010,07,09,17,13,22.80
2010,07,09,17,14,22.70
2010,07,09,17,15,22.50
2010,07,09,17,16,22.20
2010,07,09,17,17,21.80
2010,07,09,17,18,21.50
2010,07,09,17,19,21.30